• In Belgium
  • List of Countries
  • For 7 days
  • Water Temperature
  • Satellite Maps
  • Weather Map
  • Weather Widgets
  • user-avatar
    Login

    Hourly Weather Thai Binh

    Today, 19 September, Wednesday

    Time Temperature Precipitation Wind Pressure Humidity
    00:00 +28°C° 2.3 mm 3 mps 758 mmHg 90%
    01:00 +28°C° 0 mm 2 mps 758 mmHg 90%
    02:00 +28°C° 3.1 mm 2 mps 758 mmHg 90%
    03:00 +28°C° 3.1 mm 3 mps 758 mmHg 90%
    04:00 +28°C° 3.1 mm 3 mps 757 mmHg 90%
    05:00 +28°C° 3.1 mm 3 mps 758 mmHg 89%
    06:00 +28°C° 3.1 mm 3 mps 758 mmHg 88%
    07:00 +29°C° 0 mm 3 mps 759 mmHg 87%
    08:00 +30°C° 1.4 mm 4 mps 759 mmHg 84%
    09:00 +30°C° 1.4 mm 4 mps 759 mmHg 80%
    10:00 +32°C° 1.4 mm 4 mps 759 mmHg 77%
    11:00 +33°C° 1 mm 4 mps 759 mmHg 76%
    12:00 +33°C° 1 mm 5 mps 758 mmHg 74%
    13:00 +33°C° 0 mm 5 mps 758 mmHg 72%
    14:00 +33°C° 0.5 mm 4 mps 758 mmHg 73%
    15:00 +33°C° 0.5 mm 4 mps 758 mmHg 74%
    16:00 +33°C° 0.5 mm 4 mps 757 mmHg 75%
    17:00 +32°C° 0.1 mm 4 mps 757 mmHg 79%
    18:00 +30°C° 0.1 mm 3 mps 757 mmHg 83%
    19:00 +28°C° 0 mm 2 mps 758 mmHg 87%
    20:00 +28°C° 0.2 mm 2 mps 758 mmHg 87%
    21:00 +28°C° 0.2 mm 2 mps 758 mmHg 88%
    22:00 +28°C° 0.2 mm 2 mps 759 mmHg 89%
    23:00 +28°C° 0.5 mm 1 mps 759 mmHg 89%

    Tomorrow, 20 September, Thursday

    Time Temperature Precipitation Wind Pressure Humidity
    00:00 +28°C° 0.5 mm 1 mps 759 mmHg 90%
    01:00 +27°C° 0.5 mm 1 mps 759 mmHg 91%
    02:00 +27°C° 0.3 mm 1 mps 758 mmHg 91%
    03:00 +27°C° 0.3 mm 1 mps 758 mmHg 92%
    04:00 +27°C° 0.3 mm 1 mps 758 mmHg 92%
    05:00 +27°C° 0.2 mm 1 mps 758 mmHg 91%
    06:00 +28°C° 0.2 mm 2 mps 759 mmHg 90%
    07:00 +28°C° 0.2 mm 2 mps 759 mmHg 89%
    08:00 +29°C° 0.2 mm 2 mps 759 mmHg 82%
    09:00 +31°C° 0.2 mm 2 mps 759 mmHg 76%
    10:00 +32°C° 0.2 mm 2 mps 759 mmHg 69%
    11:00 +34°C° 0.1 mm 2 mps 759 mmHg 67%
    12:00 +34°C° 0.1 mm 2 mps 758 mmHg 65%
    13:00 +35°C° 0.1 mm 3 mps 758 mmHg 62%
    14:00 +34°C° 0 mm 3 mps 757 mmHg 64%
    15:00 +34°C° 0 mm 3 mps 757 mmHg 65%
    16:00 +34°C° 0 mm 3 mps 756 mmHg 66%
    17:00 +31°C° 0 mm 3 mps 756 mmHg 72%
    18:00 +30°C° 0 mm 3 mps 756 mmHg 77%
    19:00 +28°C° 0 mm 3 mps 757 mmHg 83%
    20:00 +28°C° 0 mm 2 mps 757 mmHg 84%
    21:00 +28°C° 0 mm 2 mps 758 mmHg 86%
    22:00 +27°C° 0 mm 2 mps 758 mmHg 87%
    23:00 +27°C° 0 mm 1 mps 758 mmHg 88%

    Day after tomorrow, 21 September, Friday

    Time Temperature Precipitation Wind Pressure Humidity
    00:00 +27°C° 0 mm 1 mps 758 mmHg 89%
    01:00 +27°C° 0 mm 1 mps 758 mmHg 91%
    02:00 +27°C° 0 mm 1 mps 758 mmHg 91%
    03:00 +26°C° 0 mm 1 mps 758 mmHg 92%
    04:00 +26°C° 0 mm 1 mps 758 mmHg 93%
    05:00 +27°C° 0 mm 1 mps 758 mmHg 92%
    06:00 +27°C° 0 mm 1 mps 758 mmHg 90%
    07:00 +27°C° 0 mm 1 mps 758 mmHg 89%
    08:00 +29°C° 0 mm 1 mps 759 mmHg 82%
    09:00 +31°C° 0 mm 1 mps 759 mmHg 74%
    10:00 +32°C° 0 mm 1 mps 759 mmHg 67%
    11:00 +33°C° 0 mm 1 mps 759 mmHg 62%
    12:00 +34°C° 0 mm 1 mps 758 mmHg 58%
    13:00 +35°C° 0 mm 1 mps 757 mmHg 53%
    14:00 +35°C° 0 mm 2 mps 757 mmHg 56%
    15:00 +34°C° 0 mm 2 mps 756 mmHg 60%
    16:00 +34°C° 0 mm 3 mps 756 mmHg 64%
    17:00 +31°C° 0 mm 3 mps 756 mmHg 70%
    18:00 +30°C° 0 mm 2 mps 757 mmHg 75%
    19:00 +29°C° 0 mm 2 mps 757 mmHg 81%
    20:00 +28°C° 0 mm 2 mps 757 mmHg 83%
    21:00 +28°C° 0 mm 2 mps 758 mmHg 85%
    22:00 +28°C° 0 mm 2 mps 759 mmHg 87%
    23:00 +27°C° 0 mm 1 mps 759 mmHg 88%

    22 September, Saturday

    Time Temperature Precipitation Wind Pressure Humidity
    00:00 +27°C° 0 mm 1 mps 758 mmHg 90%
    01:00 +27°C° 0 mm 1 mps 758 mmHg 91%
    02:00 +27°C° 0 mm 1 mps 758 mmHg 92%
    03:00 +26°C° 0 mm 1 mps 758 mmHg 92%
    04:00 +26°C° 0 mm 1 mps 758 mmHg 93%
    05:00 +27°C° 0 mm 1 mps 758 mmHg 91%
    06:00 +27°C° 0 mm 1 mps 759 mmHg 90%
    07:00 +28°C° 0 mm 2 mps 759 mmHg 88%
    08:00 +29°C° 0 mm 1 mps 759 mmHg 80%
    09:00 +31°C° 0 mm 1 mps 760 mmHg 72%
    10:00 +33°C° 0 mm 1 mps 760 mmHg 65%
    11:00 +34°C° 0 mm 1 mps 759 mmHg 61%
    12:00 +34°C° 0 mm 1 mps 758 mmHg 57%
    13:00 +36°C° 0 mm 2 mps 758 mmHg 54%
    14:00 +36°C° 0 mm 2 mps 757 mmHg 56%
    15:00 +35°C° 0 mm 2 mps 757 mmHg 59%
    16:00 +35°C° 0 mm 3 mps 756 mmHg 61%
    17:00 +33°C° 0 mm 3 mps 756 mmHg 68%
    18:00 +30°C° 0 mm 3 mps 757 mmHg 74%
    19:00 +29°C° 0 mm 3 mps 757 mmHg 81%
    20:00 +29°C° 0 mm 3 mps 758 mmHg 82%
    21:00 +28°C° 0 mm 2 mps 759 mmHg 84%
    22:00 +28°C° 0 mm 2 mps 759 mmHg 85%
    23:00 +28°C° 0 mm 1 mps 759 mmHg 86%

    23 September, Sunday

    Time Temperature Precipitation Wind Pressure Humidity
    00:00 +28°C° 0 mm 1 mps 759 mmHg 88%
    01:00 +27°C° 0 mm 1 mps 759 mmHg 89%
    02:00 +27°C° 0 mm 1 mps 759 mmHg 90%
    03:00 +27°C° 0 mm 1 mps 758 mmHg 91%
    04:00 +27°C° 0 mm 1 mps 758 mmHg 92%
    05:00 +27°C° 0 mm 1 mps 759 mmHg 91%
    06:00 +27°C° 0 mm 1 mps 759 mmHg 89%
    07:00 +28°C° 0 mm 2 mps 759 mmHg 88%
    08:00 +29°C° 0 mm 2 mps 760 mmHg 80%
    09:00 +31°C° 0 mm 2 mps 760 mmHg 71%
    10:00 +34°C° 0 mm 2 mps 760 mmHg 63%
    11:00 +33°C° 0 mm 1 mps 759 mmHg 59%
    12:00 +34°C° 0 mm 1 mps 758 mmHg 55%
    13:00 +35°C° 0 mm 1 mps 758 mmHg 50%
    14:00 +35°C° 0 mm 1 mps 757 mmHg 52%
    15:00 +36°C° 0 mm 2 mps 756 mmHg 53%
    16:00 +35°C° 0 mm 2 mps 756 mmHg 55%
    17:00 +34°C° 0 mm 2 mps 756 mmHg 63%
    18:00 +31°C° 0 mm 3 mps 757 mmHg 71%
    19:00 +29°C° 0 mm 3 mps 757 mmHg 79%
    20:00 +29°C° 0 mm 2 mps 758 mmHg 81%
    21:00 +29°C° 0 mm 2 mps 758 mmHg 82%
    22:00 +29°C° 0 mm 2 mps 759 mmHg 84%
    23:00 +28°C° 0 mm 2 mps 758 mmHg 85%

    24 September, Monday

    Time Temperature Precipitation Wind Pressure Humidity
    00:00 +28°C° 0 mm 1 mps 758 mmHg 86%
    01:00 +28°C° 0 mm 1 mps 758 mmHg 88%
    02:00 +28°C° 0 mm 1 mps 757 mmHg 88%
    03:00 +27°C° 0 mm 1 mps 757 mmHg 89%
    04:00 +27°C° 0 mm 1 mps 757 mmHg 90%
    05:00 +28°C° 0 mm 1 mps 757 mmHg 88%
    06:00 +28°C° 0 mm 1 mps 758 mmHg 86%
    07:00 +28°C° 0 mm 1 mps 758 mmHg 84%
    08:00 +30°C° 0 mm 1 mps 758 mmHg 77%
    09:00 +32°C° 0 mm 1 mps 758 mmHg 69%
    10:00 +32°C° 0 mm 0 mps 758 mmHg 62%
    11:00 +34°C° 0 mm 1 mps 757 mmHg 59%
    12:00 +35°C° 0 mm 1 mps 757 mmHg 56%
    13:00 +36°C° 0 mm 2 mps 756 mmHg 53%
    14:00 +36°C° 0 mm 2 mps 755 mmHg 56%
    15:00 +35°C° 0 mm 3 mps 755 mmHg 59%
    16:00 +35°C° 0 mm 3 mps 754 mmHg 62%
    17:00 +33°C° 0 mm 3 mps 755 mmHg 68%
    18:00 +31°C° 0 mm 3 mps 755 mmHg 75%
    19:00 +29°C° 0 mm 3 mps 756 mmHg 81%
    20:00 +29°C° 0 mm 3 mps 756 mmHg 82%
    21:00 +29°C° 0 mm 3 mps 757 mmHg 84%
    22:00 +29°C° 0 mm 3 mps 757 mmHg 85%
    23:00 +28°C° 0 mm 2 mps 757 mmHg 86%
    Show more